FW3092 Weather Reports


Display with metric or nautical units.
time (UTC)temp
F
wind
direction
speed
MPH
gust
MPH
rain 1hr
in
rain 24hr
in
rain mn
in
humidity
%
barometer
mb
20260505124542 61 188 8.0 16.0 0.00 0.00 0.00 71 950.9
20260505123100 60 213 8.0 13.0 0.00 0.00 0.00 71 951.0
20260505121536 60 197 7.0 12.0 0.00 0.00 0.00 71 950.9
20260505120046 60 201 7.0 13.0 0.00 0.00 0.00 71 950.8
20260505114544 60 210 8.0 17.0 0.00 0.00 0.00 71 950.7
20260505113028 59 207 9.0 20.0 0.00 0.00 0.00 69 950.8
20260505111530 59 191 7.0 13.0 0.00 0.00 0.00 70 951.0
20260505101520 59 206 9.0 15.0 0.00 0.00 0.00 68 950.5
20260505100028 58 223 7.0 12.0 0.00 0.00 0.00 68 950.3
20260505094519 59 213 7.0 14.0 0.00 0.00 0.00 67 950.0
20260505093016 59 214 9.0 14.0 0.00 0.00 0.00 67 949.9
20260505091518 59 211 8.0 14.0 0.00 0.00 0.00 67 949.8
20260505090017 59 207 8.0 13.0 0.00 0.00 0.00 67 949.7
20260505084515 59 199 8.0 13.0 0.00 0.00 0.00 66 949.7
20260505083013 59 202 8.0 13.0 0.00 0.00 0.00 65 949.6
20260505081509 59 185 8.0 14.0 0.00 0.00 0.00 65 949.8
20260505080008 59 192 7.0 14.0 0.00 0.00 0.00 65 949.8
20260505074508 59 203 8.0 13.0 0.00 0.00 0.00 65 949.9
20260505073011 59 193 7.0 11.0 0.00 0.00 0.00 64 950.0
20260505071506 59 202 8.0 13.0 0.00 0.00 0.00 63 950.0
20260505070005 59 202 8.0 13.0 0.00 0.00 0.00 64 950.0
20260505064504 58 209 8.0 15.0 0.00 0.00 0.00 64 950.0
20260505063005 58 217 8.0 13.0 0.00 0.00 0.00 64 950.0
20260505061604 58 202 7.0 15.0 0.00 0.00 0.00 64 949.9
20260505060059 57 193 6.0 12.0 0.00 0.00 0.00 64 950.0
20260505054600 57 200 6.0 9.0 0.00 0.00 0.00 64 950.0
20260505053055 58 185 5.0 10.0 0.00 0.00 0.00 63 950.0
20260505051554 58 200 6.0 11.0 0.00 0.00 0.00 62 950.2
20260505050123 59 195 7.0 11.0 0.00 0.00 0.00 61 950.3
20260505041556 60 210 8.0 12.0 0.00 0.00 0.00 59 950.2
20260505040053 60 211 10.0 17.0 0.00 0.00 0.00 58 950.1
20260505034543 60 192 10.0 17.0 0.00 0.00 0.00 57 950.0
20260505033046 61 172 11.0 18.0 0.00 0.00 0.00 57 950.0
20260505031546 61 202 9.0 16.0 0.00 0.00 0.00 56 950.1
20260505030043 61 178 9.0 17.0 0.00 0.00 0.00 55 950.2
20260505024540 61 213 10.0 15.0 0.00 0.00 0.00 55 950.2
20260505023044 61 186 9.0 16.0 0.00 0.00 0.00 54 950.2
20260505021542 61 190 9.0 13.0 0.00 0.00 0.00 55 950.3
20260505020039 61 196 7.0 12.0 0.00 0.00 0.00 54 950.3
20260505014557 61 207 6.0 11.0 0.00 0.00 0.00 53 950.3
20260505013040 62 225 7.0 11.0 0.00 0.00 0.00 53 950.1
20260505011536 62 196 7.0 14.0 0.00 0.00 0.00 52 950.1
20260505010036 62 200 7.0 11.0 0.00 0.00 0.00 52 950.0
20260505004539 62 165 8.0 13.0 0.00 0.00 0.00 51 949.8
20260505003033 63 190 6.0 13.0 0.00 0.00 0.00 50 949.7
20260505001533 63 191 7.0 11.0 0.00 0.00 0.00 49 949.7
20260505000039 64 215 6.0 16.0 0.00 0.00 0.00 48 949.7
20260504234533 65 188 12.0 21.0 0.00 0.00 0.00 47 949.4
20260504233032 66 189 7.0 17.0 0.00 0.00 0.00 45 949.2
20260504231531 67 179 6.0 13.0 0.00 0.00 0.00 44 949.3
20260504230030 67 172 9.0 16.0 0.00 0.00 0.00 43 949.2
20260504224529 69 180 7.0 17.0 0.00 0.00 0.00 38 949.3
20260504223028 69 239 10.0 16.0 0.00 0.00 0.00 37 949.2
20260504221529 69 226 10.0 17.0 0.00 0.00 0.00 38 949.1
20260504220027 70 209 8.0 16.0 0.00 0.00 0.00 38 949.2
20260504214525 70 226 9.0 16.0 0.00 0.00 0.00 38 949.2
20260504213044 70 246 13.0 20.0 0.00 0.00 0.00 38 949.2
20260504211523 69 207 12.0 19.0 0.00 0.00 0.00 40 949.3
20260504210026 69 229 9.0 23.0 0.00 0.00 0.00 39 949.4
20260504204522 70 244 11.0 16.0 0.00 0.00 0.00 40 949.5
20260504203020 70 221 10.0 20.0 0.00 0.00 0.00 40 949.7
20260504201522 69 229 10.0 17.0 0.00 0.00 0.00 42 949.9
20260504200018 69 219 9.0 18.0 0.00 0.00 0.00 43 950.1
20260504194514 68 208 10.0 18.0 0.00 0.00 0.00 43 950.2
20260504193008 67 224 10.0 19.0 0.00 0.00 0.00 45 950.3
20260504191507 67 211 11.0 20.0 0.00 0.00 0.00 44 950.4
20260504190007 66 225 10.0 18.0 0.00 0.00 0.00 45 950.6
20260504184511 67 242 12.0 19.0 0.00 0.00 0.00 45 950.7
20260504183006 67 234 14.0 22.0 0.00 0.00 0.00 45 950.8
20260504181503 67 262 13.0 22.0 0.00 0.00 0.00 44 950.7
20260504180100 67 227 15.0 23.0 0.00 0.00 0.00 44 950.9
20260504174612 66 222 10.0 20.0 0.00 0.00 0.00 46 951.0
20260504173059 67 215 13.0 21.0 0.00 0.00 0.00 46 951.0
20260504171553 65 213 12.0 20.0 0.00 0.00 0.00 48 951.1